Hourly Weather Tarin Kowt

Today, 9 July, Thursday

Time Temperature Precipitation Wind Pressure Humidity
00:00 +23°C° 0 mm 1 mps 614 mmHg 16%
01:00 +22°C° 0 mm 1 mps 613 mmHg 16%
02:00 +21°C° 0 mm 1 mps 613 mmHg 17%
03:00 +21°C° 0 mm 1 mps 612 mmHg 18%
04:00 +20°C° 0 mm 1 mps 612 mmHg 19%
05:00 +23°C° 0 mm 1 mps 613 mmHg 16%
06:00 +25°C° 0 mm 1 mps 614 mmHg 14%
07:00 +28°C° 0 mm 1 mps 615 mmHg 11%
08:00 +30°C° 0 mm 2 mps 616 mmHg 10%
09:00 +33°C° 0 mm 4 mps 616 mmHg 8%
10:00 +35°C° 0 mm 5 mps 616 mmHg 7%
11:00 +35°C° 0 mm 6 mps 616 mmHg 6%
12:00 +36°C° 0 mm 6 mps 616 mmHg 6%
13:00 +38°C° 0 mm 7 mps 615 mmHg 5%
14:00 +38°C° 0 mm 7 mps 615 mmHg 5%
15:00 +38°C° 0 mm 8 mps 615 mmHg 5%
16:00 +38°C° 0 mm 8 mps 614 mmHg 4%
17:00 +34°C° 0 mm 6 mps 614 mmHg 5%
18:00 +32°C° 0 mm 5 mps 613 mmHg 5%
19:00 +28°C° 0 mm 3 mps 612 mmHg 6%
20:00 +26°C° 0 mm 2 mps 612 mmHg 7%
21:00 +25°C° 0 mm 2 mps 612 mmHg 8%
22:00 +23°C° 0 mm 1 mps 611 mmHg 9%
23:00 +22°C° 0 mm 1 mps 611 mmHg 9%

Tomorrow, 10 July, Friday

Time Temperature Precipitation Wind Pressure Humidity
00:00 +22°C° 0 mm 1 mps 611 mmHg 10%
01:00 +21°C° 0 mm 1 mps 610 mmHg 11%
02:00 +21°C° 0 mm 1 mps 610 mmHg 12%
03:00 +20°C° 0 mm 1 mps 610 mmHg 13%
04:00 +20°C° 0 mm 1 mps 610 mmHg 15%
05:00 +21°C° 0 mm 2 mps 611 mmHg 14%
06:00 +25°C° 0 mm 2 mps 613 mmHg 13%
07:00 +27°C° 0 mm 2 mps 614 mmHg 12%
08:00 +29°C° 0 mm 2 mps 614 mmHg 11%
09:00 +30°C° 0 mm 2 mps 615 mmHg 10%
10:00 +32°C° 0 mm 2 mps 615 mmHg 10%
11:00 +34°C° 0 mm 2 mps 615 mmHg 9%
12:00 +34°C° 0 mm 1 mps 615 mmHg 8%
13:00 +35°C° 0 mm 1 mps 615 mmHg 7%
14:00 +36°C° 0 mm 1 mps 614 mmHg 7%
15:00 +37°C° 0 mm 2 mps 614 mmHg 7%
16:00 +37°C° 0 mm 2 mps 614 mmHg 7%
17:00 +35°C° 0 mm 2 mps 613 mmHg 8%
18:00 +32°C° 0 mm 2 mps 613 mmHg 9%
19:00 +29°C° 0 mm 2 mps 612 mmHg 10%
20:00 +28°C° 0 mm 2 mps 612 mmHg 11%
21:00 +26°C° 0 mm 1 mps 612 mmHg 11%
22:00 +24°C° 0 mm 1 mps 611 mmHg 12%
23:00 +24°C° 0 mm 1 mps 611 mmHg 14%

Day after tomorrow, 11 July, Saturday

Time Temperature Precipitation Wind Pressure Humidity
00:00 +23°C° 0 mm 1 mps 611 mmHg 15%
01:00 +23°C° 0 mm 2 mps 611 mmHg 17%
02:00 +21°C° 0 mm 2 mps 611 mmHg 18%
03:00 +21°C° 0 mm 2 mps 610 mmHg 20%
04:00 +20°C° 0 mm 2 mps 610 mmHg 22%
05:00 +22°C° 0 mm 3 mps 611 mmHg 19%
06:00 +25°C° 0 mm 3 mps 612 mmHg 17%
07:00 +27°C° 0 mm 4 mps 613 mmHg 15%
08:00 +28°C° 0 mm 4 mps 613 mmHg 14%
09:00 +30°C° 0 mm 4 mps 614 mmHg 12%
10:00 +33°C° 0 mm 4 mps 614 mmHg 10%
11:00 +34°C° 0 mm 4 mps 614 mmHg 9%
12:00 +36°C° 0 mm 4 mps 613 mmHg 9%
13:00 +37°C° 0 mm 4 mps 613 mmHg 8%
14:00 +37°C° 0 mm 3 mps 613 mmHg 7%
15:00 +37°C° 0 mm 3 mps 612 mmHg 7%
16:00 +38°C° 0 mm 2 mps 612 mmHg 7%
17:00 +35°C° 0 mm 3 mps 611 mmHg 9%
18:00 +33°C° 0 mm 3 mps 611 mmHg 11%
19:00 +30°C° 0 mm 3 mps 610 mmHg 14%
20:00 +28°C° 0 mm 3 mps 610 mmHg 15%
21:00 +27°C° 0 mm 3 mps 610 mmHg 17%
22:00 +25°C° 0 mm 2 mps 610 mmHg 19%
23:00 +25°C° 0 mm 2 mps 610 mmHg 21%

12 July, Sunday

Time Temperature Precipitation Wind Pressure Humidity
00:00 +24°C° 0 mm 3 mps 609 mmHg 22%
01:00 +22°C° 0 mm 3 mps 609 mmHg 24%
02:00 +21°C° 0 mm 3 mps 609 mmHg 26%
03:00 +20°C° 0 mm 3 mps 609 mmHg 27%
04:00 +20°C° 0 mm 3 mps 608 mmHg 29%
05:00 +21°C° 0 mm 4 mps 609 mmHg 27%
06:00 +22°C° 0 mm 4 mps 610 mmHg 25%
07:00 +25°C° 0 mm 4 mps 611 mmHg 23%
08:00 +27°C° 0 mm 4 mps 611 mmHg 20%
09:00 +28°C° 0 mm 4 mps 612 mmHg 18%
10:00 +30°C° 0 mm 4 mps 612 mmHg 16%
11:00 +33°C° 0 mm 3 mps 612 mmHg 14%
12:00 +34°C° 0 mm 3 mps 612 mmHg 12%
13:00 +35°C° 0 mm 3 mps 612 mmHg 10%
14:00 +36°C° 0 mm 3 mps 612 mmHg 9%
15:00 +36°C° 0 mm 3 mps 612 mmHg 8%
16:00 +37°C° 0 mm 3 mps 612 mmHg 8%
17:00 +34°C° 0 mm 4 mps 612 mmHg 9%
18:00 +32°C° 0 mm 4 mps 611 mmHg 11%
19:00 +29°C° 0 mm 4 mps 611 mmHg 13%
20:00 +27°C° 0 mm 4 mps 611 mmHg 15%
21:00 +26°C° 0 mm 3 mps 611 mmHg 17%
22:00 +25°C° 0 mm 2 mps 611 mmHg 20%
23:00 +24°C° 0 mm 2 mps 610 mmHg 21%

13 July, Monday

Time Temperature Precipitation Wind Pressure Humidity
00:00 +23°C° 0 mm 2 mps 610 mmHg 22%
01:00 +21°C° 0 mm 2 mps 610 mmHg 23%
02:00 +21°C° 0 mm 2 mps 610 mmHg 24%
03:00 +20°C° 0 mm 2 mps 610 mmHg 24%
04:00 +20°C° 0 mm 3 mps 610 mmHg 25%
05:00 +21°C° 0 mm 3 mps 610 mmHg 23%
06:00 +24°C° 0 mm 3 mps 611 mmHg 20%
07:00 +26°C° 0 mm 3 mps 612 mmHg 18%
08:00 +28°C° 0 mm 2 mps 613 mmHg 16%
09:00 +30°C° 0 mm 2 mps 613 mmHg 14%
10:00 +32°C° 0 mm 2 mps 614 mmHg 13%
11:00 +35°C° 0 mm 2 mps 614 mmHg 11%
12:00 +36°C° 0 mm 3 mps 614 mmHg 10%
13:00 +37°C° 0 mm 4 mps 614 mmHg 8%
14:00 +37°C° 0 mm 4 mps 614 mmHg 8%
15:00 +39°C° 0 mm 5 mps 614 mmHg 7%
16:00 +39°C° 0 mm 5 mps 613 mmHg 7%
17:00 +35°C° 0 mm 4 mps 613 mmHg 9%
18:00 +31°C° 0 mm 3 mps 612 mmHg 10%
19:00 +29°C° 0 mm 2 mps 612 mmHg 11%
20:00 +28°C° 0 mm 2 mps 612 mmHg 12%
21:00 +27°C° 0 mm 2 mps 613 mmHg 13%
22:00 +26°C° 0 mm 2 mps 613 mmHg 14%
23:00 +25°C° 0 mm 2 mps 613 mmHg 21%

14 July, Tuesday

Time Temperature Precipitation Wind Pressure Humidity
00:00 +25°C° 0 mm 3 mps 613 mmHg 29%
01:00 +23°C° 0 mm 4 mps 613 mmHg 36%
02:00 +22°C° 0 mm 3 mps 613 mmHg 39%
03:00 +23°C° 0 mm 2 mps 613 mmHg 42%
04:00 +21°C° 0 mm 2 mps 613 mmHg 46%
05:00 +24°C° 0 mm 2 mps 614 mmHg 42%
06:00 +26°C° 0 mm 2 mps 615 mmHg 38%
07:00 +27°C° 0 mm 2 mps 616 mmHg 35%
08:00 +29°C° 0 mm 3 mps 617 mmHg 31%
09:00 +30°C° 0 mm 3 mps 617 mmHg 28%
10:00 +33°C° 0 mm 4 mps 617 mmHg 24%
11:00 +34°C° 0 mm 4 mps 617 mmHg 21%
12:00 +35°C° 0 mm 4 mps 617 mmHg 17%
13:00 +37°C° 0 mm 4 mps 618 mmHg 14%
14:00 +37°C° 0 mm 4 mps 617 mmHg 12%
15:00 +37°C° 0 mm 4 mps 617 mmHg 11%
16:00 +37°C° 0 mm 5 mps 617 mmHg 9%
17:00 +35°C° 0 mm 4 mps 616 mmHg 10%
18:00 +33°C° 0 mm 4 mps 615 mmHg 11%
19:00 +30°C° 0 mm 3 mps 615 mmHg 11%
20:00 +28°C° 0 mm 3 mps 614 mmHg 12%
21:00 +27°C° 0 mm 2 mps 614 mmHg 13%
22:00 +25°C° 0 mm 1 mps 614 mmHg 15%
23:00 +24°C° 0 mm 1 mps 614 mmHg 15%
Show more